Theta_e
309 309 309 308 310 309 309 308 308 307 306 303 301 301 301 301 301 301 302 302 303 303 303 304 304 305 311 314 310 315 317 316 320 323 327 323 319 320 323 324 327 328 327 328 344 352 352
309 309 309 309 309 308 307 308 308 306 302 301 301 300 300 300 300 301 302 302 303 304 305 306 307 308 312 308 313 314 314 313 318 322 327 322 321 319 321 325 326 326 324 341 345 353 354
308 308 308 308 307 307 307 307 307 306 304 301 301 300 300 300 300 301 301 302 305 308 310 310 310 312 318 308 313 318 319 318 322 323 323 324 322 322 323 326 325 323 338 334 340 349 353
307 307 307 307 307 306 306 306 306 305 301 300 300 299 299 299 300 301 302 304 306 314 314 312 312 317 309 311 313 313 314 315 323 325 324 323 323 321 321 322 319 322 333 339 336 349 352
307 307 307 307 307 306 306 305 303 301 300 299 299 299 298 298 299 300 302 305 314 314 311 313 316 317 311 314 317 314 313 313 313 315 319 324 321 320 322 323 320 317 334 337 337 341 354
307 306 307 307 306 305 302 302 301 300 300 299 298 298 297 298 298 300 305 310 315 320 319 320 320 317 312 316 318 319 316 314 316 315 319 323 319 319 315 319 327 321 327 335 339 337 350
307 306 306 306 306 304 302 300 300 299 299 298 297 297 297 297 298 302 302 310 304 307 306 318 313 315 316 316 318 318 315 313 320 319 318 320 321 321 321 320 321 322 325 333 336 335 342
305 305 305 305 305 305 303 300 298 298 297 297 298 298 297 298 298 305 303 305 304 304 305 308 307 309 313 315 316 317 315 314 318 319 321 320 322 320 321 320 320 321 321 323 331 337 340
306 305 306 305 305 304 301 299 298 298 298 299 300 300 298 298 299 301 303 305 303 305 304 308 308 309 310 311 314 315 314 315 316 319 321 322 323 321 321 320 321 319 320 322 332 340 339
304 304 305 305 303 299 298 298 299 300 301 302 302 301 299 298 300 299 301 301 302 305 306 310 310 310 313 313 315 317 317 317 317 318 321 323 323 323 322 320 319 319 319 323 330 334 346
305 305 305 305 304 301 299 300 301 302 302 302 302 302 300 301 302 301 301 302 303 304 313 316 312 312 313 316 317 317 319 317 317 318 319 319 322 323 323 324 319 321 319 321 327 329 333
305 305 304 304 304 303 302 303 302 302 302 302 302 302 300 302 303 304 304 303 305 309 314 316 314 314 315 315 317 318 320 318 317 319 319 319 320 322 323 323 320 320 320 319 321 326 329
304 304 305 304 303 302 302 303 302 302 301 302 302 302 300 301 303 303 304 302 306 309 311 314 311 309 311 315 317 320 319 319 318 317 320 320 321 321 322 322 320 318 318 319 322 323 326
304 304 305 304 303 302 302 303 303 301 301 302 303 303 300 303 304 303 304 302 309 308 309 310 310 309 311 314 316 318 318 321 318 315 316 320 323 321 320 323 319 318 317 319 325 325 326
304 304 304 303 303 303 302 302 302 302 302 304 304 302 300 302 304 303 300 303 305 308 310 310 309 310 309 310 310 318 318 320 321 315 317 318 321 321 318 317 318 317 318 317 319 318 324
303 304 304 303 303 303 302 302 303 304 304 304 303 299 299 304 304 303 302 303 303 307 308 308 309 309 308 309 310 313 317 320 319 316 316 317 321 319 320 318 317 316 315 319 314 321 326
303 303 304 304 303 303 303 304 304 305 305 304 301 295 298 304 303 299 303 303 307 307 308 309 309 309 308 308 308 310 314 316 319 317 316 315 317 320 319 319 317 316 317 314 316 317 322
303 303 304 304 304 303 304 305 305 305 304 304 298 299 302 304 302 300 304 306 308 308 308 308 308 308 309 308 306 310 311 317 317 319 319 316 315 320 319 320 318 315 315 315 318 320 318
303 304 304 304 304 304 304 305 305 304 303 304 301 296 302 304 303 306 307 307 308 308 309 309 309 309 309 308 307 308 311 316 315 318 319 316 315 318 322 319 318 317 314 312 311 316 321
304 304 304 304 304 304 304 304 304 303 303 303 299 299 298 298 300 303 309 307 309 309 310 308 308 308 308 308 305 307 308 313 313 317 326 323 313 320 321 321 318 321 315 315 316 316 316
304 304 304 304 304 304 304 304 304 302 302 303 296 298 302 300 299 300 306 309 310 310 308 307 308 309 308 308 310 307 310 310 313 315 314 314 318 317 319 321 320 320 319 315 316 315 321
303 304 304 304 304 304 304 304 304 302 302 302 299 301 302 301 298 302 305 310 310 309 307 308 308 307 306 309 310 310 307 308 312 311 311 312 320 318 318 319 321 322 320 318 317 315 317
303 303 304 303 304 304 304 305 304 304 302 302 301 301 302 301 298 301 305 305 309 307 307 307 307 304 306 308 306 306 305 306 304 306 310 313 317 317 321 319 320 322 321 317 316 315 317
302 304 304 304 304 304 304 304 305 304 303 303 301 301 302 301 297 300 301 303 304 304 308 307 305 304 304 303 303 304 302 303 303 303 305 312 315 317 317 318 323 321 321 320 322 330 323
302 303 304 305 305 305 304 304 305 305 305 304 302 301 302 303 299 301 302 304 303 304 305 305 305 303 302 305 303 311 313 314 313 307 306 307 314 322 319 320 321 323 327 323 328 338 330
301 302 303 305 304 304 305 305 305 305 305 305 303 302 302 304 299 301 302 303 301 303 305 304 303 302 305 305 305 314 318 316 318 316 307 308 312 317 322 321 325 328 325 324 328 340 334
302 303 303 303 303 304 304 304 304 304 304 305 302 301 301 302 299 299 300 301 300 302 303 303 302 302 304 308 310 312 312 313 316 317 315 315 316 319 322 324 329 321 320 323 332 333 325
304 304 304 304 303 303 303 304 304 304 305 306 303 301 302 300 299 300 300 301 300 301 302 300 302 301 301 307 310 312 317 317 320 319 319 319 320 322 322 327 334 319 319 327 320 318 321
304 304 304 304 304 304 304 304 304 304 305 306 304 301 301 302 298 302 302 302 302 301 300 298 300 300 300 303 305 307 314 315 315 325 311 318 312 315 323 325 320 316 315 314 313 315 318
Wind_Speed
21 20 22 22 23 24 25 26 27 28 29 31 33 34 35 35 36 36 37 34 33 31 28 24 19 12 4 2 10 13 10 14 1 22 12 6 6 5 4 4 2 5 6 6 9 15 8
21 21 21 23 24 25 25 26 27 28 31 33 35 37 38 39 39 40 38 37 36 33 26 22 15 3 2 6 14 12 12 7 11 22 14 6 7 7 4 4 2 3 6 4 9 12 8
21 21 22 23 24 25 26 27 28 29 31 34 37 39 40 42 42 41 41 40 34 32 27 21 11 7 3 17 6 7 5 4 10 20 7 14 5 3 2 3 3 3 3 7 5 6 5
21 21 21 22 23 25 26 27 28 30 34 36 38 40 42 45 44 43 42 33 33 18 13 10 13 10 8 12 13 28 25 14 7 10 6 5 9 4 3 4 5 2 4 4 4 8 4
19 20 21 21 23 24 26 28 30 32 35 38 40 42 44 46 45 46 38 34 11 10 8 17 12 5 9 4 7 21 22 10 15 21 11 5 6 4 1 3 3 5 5 4 3 8 7
20 21 22 22 23 26 27 29 30 32 36 38 41 44 46 47 47 42 28 12 4 7 8 3 3 2 6 4 5 4 10 20 4 9 5 4 3 3 2 4 6 5 4 4 6 8 8
21 21 22 23 24 26 28 31 32 35 38 40 43 45 47 51 48 30 34 4 5 3 5 7 4 5 6 10 4 3 5 14 6 5 7 5 4 8 11 11 4 5 5 7 4 4 5
20 21 22 23 24 26 28 31 34 36 38 40 43 44 46 50 42 14 24 6 7 5 11 12 19 17 31 7 5 4 19 7 6 6 7 4 8 8 4 2 5 4 4 3 1 5 6
20 21 21 23 24 26 29 32 34 37 39 41 43 45 47 46 24 16 14 7 16 14 5 9 9 7 7 13 10 8 10 6 7 8 8 7 4 12 7 5 6 4 6 5 6 5 4
20 21 22 23 25 28 30 32 34 36 38 41 43 45 45 41 5 24 8 15 28 5 4 8 5 7 5 10 6 13 16 7 4 12 10 6 6 13 7 7 6 6 7 6 6 4 4
21 22 23 25 26 29 32 34 36 38 40 41 43 44 41 21 14 9 12 23 25 4 6 2 3 1 5 10 5 11 14 3 9 8 9 9 8 11 13 16 10 9 8 9 4 3 4
21 23 24 25 27 29 31 33 36 38 41 42 44 43 36 15 13 18 24 22 3 3 8 6 3 2 3 3 5 4 6 3 5 6 3 9 4 10 9 5 11 7 6 8 5 4 1
21 22 23 24 26 28 30 31 34 37 40 42 44 43 26 10 10 25 17 4 2 5 7 7 5 6 5 5 4 7 13 11 9 8 6 4 8 3 6 6 3 6 7 2 2 1 6
21 22 23 24 26 28 30 31 33 36 39 41 43 40 15 7 22 20 6 5 3 3 7 6 7 11 5 1 7 7 13 15 3 7 5 8 7 11 5 9 8 8 9 6 4 4 4
22 23 23 24 27 28 30 31 32 34 37 41 41 31 5 13 22 6 4 2 7 3 6 9 10 4 5 5 4 6 9 22 20 11 8 7 7 1 6 5 10 4 5 7 7 4 3
22 22 23 24 26 28 29 30 30 32 35 38 34 12 6 32 11 3 4 6 5 3 7 5 4 4 4 7 7 5 8 13 9 9 7 7 4 5 8 5 1 8 10 4 3 6 4
22 23 23 25 25 27 27 28 29 31 32 29 11 4 8 33 4 4 3 6 5 5 6 4 4 6 5 5 4 4 2 6 2 10 7 7 4 4 7 8 9 4 4 5 6 5 7
22 23 23 24 24 25 25 27 28 29 27 17 6 4 18 25 3 2 2 8 7 4 2 8 4 7 6 6 5 4 4 4 10 3 15 8 6 5 9 2 7 8 9 7 6 4 1
22 22 23 24 23 23 24 26 26 25 22 11 5 3 9 10 4 5 8 6 5 5 4 3 3 2 6 4 5 4 4 3 12 9 5 8 3 3 2 4 3 6 5 6 7 4 8
22 22 22 23 22 22 22 23 23 22 19 11 3 4 4 4 1 3 6 7 5 8 6 3 4 5 5 4 7 6 5 6 11 5 8 1 5 14 11 4 6 4 5 5 8 6 6
22 22 22 21 21 21 20 20 21 19 16 7 2 2 1 4 3 5 6 4 8 7 5 4 3 5 5 4 5 3 3 6 4 9 6 3 11 7 10 6 6 6 8 9 6 7 13
22 22 22 21 20 20 19 17 18 16 14 2 0 1 2 6 4 5 4 1 5 6 4 4 3 12 6 2 2 5 7 3 3 7 6 6 1 5 9 10 8 4 11 15 9 6 5
22 22 22 21 20 20 19 18 14 14 10 2 2 3 1 4 5 3 3 4 4 7 6 12 9 8 6 1 5 13 9 10 6 4 4 4 2 4 13 8 6 8 8 7 5 5 10
24 23 22 21 20 19 19 18 15 12 7 4 5 3 2 4 1 3 8 14 14 9 5 15 17 4 6 16 13 4 5 9 6 9 6 3 2 2 4 7 8 8 8 10 5 3 2
26 23 22 22 20 20 19 18 17 13 10 10 6 3 2 4 3 10 8 4 11 6 10 15 8 5 11 6 4 4 2 1 4 6 6 7 1 3 5 6 3 3 5 3 4 4 9
26 24 23 22 21 20 20 19 18 14 11 13 11 10 2 3 4 3 6 5 4 3 8 4 8 9 4 2 2 1 4 3 2 2 6 5 3 3 2 7 7 2 9 9 6 2 8
26 24 23 22 21 21 20 19 18 16 13 13 7 12 4 2 5 4 2 1 4 3 4 5 12 8 5 4 4 4 3 4 2 3 3 3 2 5 2 2 3 12 16 8 9 3 11
25 24 23 22 21 20 20 20 19 17 14 14 6 14 9 3 5 8 5 4 3 1 2 5 7 5 4 6 3 3 3 3 2 3 3 2 2 1 0 1 2 20 4 6 6 6 9
26 24 23 21 20 19 19 18 17 16 13 12 6 11 17 4 6 16 20 22 16 18 3 3 3 2 3 3 3 2 2 3 4 2 5 3 2 2 1 4 0 4 7 2 4 5 6
Wind_Direction
20 19 16 13 11 9 7 4 0 358 358 357 357 356 354 350 346 343 340 334 328 321 314 308 306 311 329 259 245 244 271 306 267 177 210 172 151 168 199 211 220 201 270 231 161 155 139
20 17 15 11 8 5 2 0 359 358 360 358 357 357 354 350 346 342 338 332 325 317 309 300 291 261 161 244 259 270 267 250 195 180 181 185 195 200 205 238 182 260 298 61 148 143 136
17 14 11 8 5 3 3 0 359 358 358 357 357 356 353 349 346 343 337 330 326 314 299 281 249 178 204 234 225 196 51 157 182 184 148 205 227 146 167 255 275 312 86 62 78 133 140
15 12 10 8 5 3 1 359 357 357 358 359 357 355 353 349 346 342 335 333 326 326 315 254 176 158 242 264 260 248 239 240 163 182 203 159 222 220 205 287 19 67 63 107 198 133 165
14 13 11 7 5 3 1 0 360 359 359 358 356 355 352 348 347 342 337 334 344 25 42 125 133 180 262 278 239 249 234 198 227 223 217 116 146 188 140 150 32 1 158 146 183 164 154
12 11 9 7 4 3 3 1 359 358 358 357 355 353 351 348 347 342 345 346 53 60 74 40 91 332 258 222 246 226 208 196 146 121 132 154 79 122 39 114 193 187 145 142 185 193 165
8 6 5 3 2 2 0 359 357 357 357 356 354 353 349 347 347 344 351 13 10 352 3 228 215 273 284 331 294 215 167 146 119 107 153 176 133 192 196 191 148 145 129 165 230 200 138
5 4 2 1 359 358 359 358 357 356 356 354 354 351 348 344 345 358 2 72 80 305 298 250 243 251 258 295 312 294 151 127 147 161 129 84 206 205 202 186 133 127 120 176 236 166 147
3 359 359 359 358 358 358 357 356 355 353 352 352 352 350 345 347 355 7 93 341 346 241 283 215 209 204 164 212 244 171 152 147 143 167 156 227 159 156 180 175 178 165 168 159 108 53
359 356 356 357 357 359 358 355 353 352 352 351 350 351 351 342 359 337 341 329 335 327 309 272 246 263 155 135 238 188 186 158 157 177 136 192 198 168 171 183 148 196 177 155 153 115 188
355 355 355 355 355 355 356 354 352 351 349 349 348 349 349 351 319 321 316 321 332 142 321 240 202 208 178 187 161 209 175 102 163 159 131 220 173 165 178 197 161 216 154 162 132 112 93
353 352 351 351 350 351 353 353 350 349 348 346 346 346 344 343 331 326 323 321 351 56 246 311 73 25 121 272 307 82 153 114 147 121 110 192 179 163 194 155 169 170 86 49 53 103 51
350 348 346 346 348 349 350 348 348 346 345 345 342 342 341 327 323 334 325 353 38 197 328 338 342 358 311 225 233 176 178 168 161 138 164 162 209 202 150 112 113 84 85 28 26 78 210
347 346 346 344 347 348 348 348 348 346 346 346 341 338 347 335 336 335 331 57 222 267 284 347 333 307 224 169 246 203 170 181 229 113 134 157 200 179 195 172 166 169 154 148 152 192 224
342 344 341 342 345 346 348 348 349 348 346 346 342 338 351 356 342 328 65 112 209 262 333 319 320 333 315 338 16 182 191 193 189 162 145 143 233 197 173 145 140 184 159 175 104 7 101
338 337 337 339 343 345 347 347 348 349 345 345 337 323 297 351 344 117 89 224 240 243 348 343 322 5 313 314 359 12 175 193 183 174 138 199 171 217 190 112 147 151 169 124 16 134 201
333 334 334 337 341 344 347 348 347 346 343 345 348 356 0 351 146 51 188 231 262 267 357 329 319 325 285 297 327 301 304 1 186 179 143 145 118 222 122 194 160 141 162 60 112 138 167
329 331 333 333 339 344 347 347 347 347 346 347 7 342 349 351 45 52 335 319 300 302 267 249 242 231 250 301 298 292 307 16 341 302 185 199 144 186 194 175 170 166 174 146 138 196 125
328 329 330 331 337 339 345 348 349 349 355 340 331 274 335 7 52 344 319 297 277 310 292 331 292 339 292 267 293 271 275 359 14 23 194 178 195 135 104 9 354 179 172 121 105 96 184
327 328 328 329 331 336 339 348 350 347 349 344 15 343 323 20 308 358 317 310 307 306 279 335 273 336 335 263 210 270 324 314 349 2 334 125 154 195 206 205 134 133 143 158 154 174 165
325 326 325 324 330 333 335 346 350 350 348 340 37 282 1 302 331 317 302 282 310 341 333 300 356 0 301 289 310 260 336 314 312 351 0 100 207 181 193 161 154 155 172 169 162 170 195
323 320 319 321 328 327 331 334 345 350 347 333 16 349 1 288 286 298 290 319 305 337 305 309 16 330 302 285 138 295 14 274 286 325 12 351 288 132 197 200 183 202 189 180 185 157 205
319 316 317 317 320 322 326 329 327 342 345 315 270 251 193 276 307 324 283 345 307 345 272 251 308 320 302 219 297 271 226 255 259 328 315 17 77 134 211 160 118 242 207 167 169 183 181
315 316 314 312 312 313 316 319 327 320 289 259 267 273 258 280 254 258 291 295 304 317 277 291 300 271 277 316 301 248 205 241 240 243 203 304 78 108 150 109 199 232 204 170 160 117 178
314 311 309 307 306 306 307 310 313 316 286 243 237 210 247 284 247 293 330 326 320 317 307 293 284 254 299 303 347 357 327 268 248 220 180 199 122 114 140 179 236 150 33 80 137 124 30
315 310 306 304 304 303 300 300 305 308 298 235 254 225 238 300 252 252 316 296 295 346 318 297 301 316 334 29 25 288 205 214 169 70 53 111 89 93 117 147 187 102 316 310 280 165 12
314 308 305 302 301 300 299 299 299 302 303 236 236 210 204 250 256 163 192 296 307 335 278 301 340 333 25 3 47 18 324 310 50 41 336 76 47 168 192 217 68 346 312 290 162 223 319
311 311 307 306 302 299 298 296 297 298 299 235 224 209 199 235 270 221 219 199 294 259 250 307 345 359 339 36 29 330 331 0 344 41 358 80 73 67 53 158 112 342 11 85 292 297 305
315 313 311 309 304 300 297 299 297 296 295 260 209 211 220 232 250 293 281 267 241 224 142 351 230 229 262 17 3 320 339 338 328 87 346 44 124 184 146 142 180 325 123 198 262 261 294